| time (UTC) | temp F | wind direction | speed knots | gust knots | rain 1hr in | rain 24hr in | rain mn in | humidity % | barometer mb |
| 20260901231335 | 89 | 180 | 0.0 | 0.0 | 0.00 | 0.00 | 0.00 | 74 | 1014.4 |
| 20260901230829 | 89 | 180 | 0.0 | 0.0 | 0.00 | 0.00 | 0.00 | 73 | 1014.4 |
| 20260901230324 | 89 | 180 | 0.0 | 0.9 | 0.00 | 0.00 | 0.00 | 73 | 1014.4 |
| 20260901225818 | 89 | 180 | 0.0 | 0.9 | 0.00 | 0.00 | 0.00 | 73 | 1014.4 |
| 20260901225312 | 90 | 180 | 0.0 | 0.0 | 0.00 | 0.00 | 0.00 | 72 | 1014.4 |
| 20260901224812 | 90 | 180 | 0.0 | 0.0 | 0.00 | 0.00 | 0.00 | 72 | 1014.5 |
| 20260901224310 | 90 | 180 | 0.0 | 0.0 | 0.00 | 0.00 | 0.00 | 71 | 1014.6 |
| 20260901223809 | 90 | 180 | 0.0 | 0.9 | 0.00 | 0.00 | 0.00 | 71 | 1014.5 |
| 20260901223306 | 89 | 180 | 0.0 | 1.7 | 0.00 | 0.00 | 0.00 | 72 | 1014.6 |
| 20260901222804 | 89 | 180 | 0.0 | 1.7 | 0.00 | 0.00 | 0.00 | 73 | 1014.6 |
| 20260901222301 | 89 | 241 | 0.0 | 1.7 | 0.00 | 0.00 | 0.00 | 69 | 1014.7 |
| 20260901221803 | 90 | 213 | 0.0 | 1.7 | 0.00 | 0.00 | 0.00 | 72 | 1014.7 |
| 20260901221300 | 90 | 227 | 0.0 | 1.7 | 0.00 | 0.00 | 0.00 | 71 | 1014.7 |
| 20260901220758 | 89 | 204 | 0.0 | 1.7 | 0.00 | 0.00 | 0.00 | 71 | 1014.8 |
| 20260901220258 | 90 | 277 | 0.0 | 1.7 | 0.00 | 0.00 | 0.00 | 70 | 1014.9 |
| 20260901215757 | 90 | 213 | 0.0 | 0.9 | 0.00 | 0.00 | 0.00 | 69 | 1014.8 |
| 20260901215519 | 90 | 213 | 0.0 | 1.7 | 0.00 | 0.00 | 0.00 | 68 | 1014.8 |
| 20260901214755 | 90 | 246 | 0.0 | 1.7 | 0.00 | 0.00 | 0.00 | 64 | 1014.8 |
| 20260901214254 | 91 | 291 | 0.0 | 1.7 | 0.00 | 0.00 | 0.00 | 63 | 1014.9 |
| 20260901213754 | 91 | 254 | 0.0 | 1.7 | 0.00 | 0.00 | 0.00 | 67 | 1014.9 |
| 20260901213253 | 91 | 248 | 0.0 | 2.6 | 0.00 | 0.00 | 0.00 | 62 | 1014.9 |
| 20260901213016 | 92 | 177 | 0.0 | 2.6 | 0.00 | 0.00 | 0.00 | 64 | 1014.9 |
| 20260901212516 | 92 | 163 | 0.0 | 1.7 | 0.00 | 0.00 | 0.00 | 61 | 1014.8 |
| 20260901212018 | 92 | 324 | 0.9 | 2.6 | 0.00 | 0.00 | 0.00 | 59 | 1014.8 |
| 20260901211252 | 92 | 266 | 0.0 | 2.6 | 0.00 | 0.00 | 0.00 | 61 | 1014.7 |
| 20260901210745 | 92 | 192 | 0.9 | 2.6 | 0.00 | 0.00 | 0.00 | 62 | 1014.8 |
| 20260901210732 | 92 | 225 | 0.0 | 2.6 | 0.00 | 0.00 | 0.00 | 61 | 1014.7 |
| 20260901205734 | 92 | 243 | 0.0 | 2.6 | 0.00 | 0.00 | 0.00 | 61 | 1014.8 |
| 20260901205227 | 93 | 222 | 0.9 | 2.6 | 0.00 | 0.00 | 0.00 | 61 | 1014.8 |
| 20260901204722 | 93 | 272 | 0.0 | 1.7 | 0.00 | 0.00 | 0.00 | 58 | 1014.9 |
| 20260901204215 | 93 | 210 | 0.0 | 1.7 | 0.00 | 0.00 | 0.00 | 58 | 1014.9 |
| 20260901203709 | 94 | 273 | 0.0 | 3.5 | 0.00 | 0.00 | 0.00 | 56 | 1014.9 |
| 20260901203203 | 95 | 171 | 0.9 | 3.5 | 0.00 | 0.00 | 0.00 | 56 | 1015.0 |
| 20260901202657 | 94 | 316 | 0.9 | 3.5 | 0.00 | 0.00 | 0.00 | 54 | 1015.0 |
| 20260901202157 | 94 | 229 | 0.9 | 3.5 | 0.00 | 0.00 | 0.00 | 53 | 1015.1 |
| 20260901201646 | 96 | 36 | 0.9 | 4.3 | 0.00 | 0.00 | 0.00 | 54 | 1015.1 |
| 20260901201140 | 96 | 147 | 1.7 | 4.3 | 0.00 | 0.00 | 0.00 | 52 | 1015.1 |
| 20260901200634 | 95 | 296 | 1.7 | 8.7 | 0.00 | 0.00 | 0.00 | 54 | 1015.3 |
| 20260901200127 | 96 | 11 | 1.7 | 8.7 | 0.00 | 0.00 | 0.00 | 50 | 1015.3 |
| 20260901195623 | 97 | 302 | 0.9 | 5.2 | 0.00 | 0.00 | 0.00 | 48 | 1015.4 |
| 20260901195115 | 97 | 48 | 0.9 | 6.1 | 0.00 | 0.00 | 0.00 | 48 | 1015.4 |
| 20260901194610 | 96 | 298 | 1.7 | 7.0 | 0.00 | 0.00 | 0.00 | 50 | 1015.4 |
| 20260901194103 | 96 | 49 | 0.9 | 7.0 | 0.00 | 0.00 | 0.00 | 47 | 1015.5 |
| 20260901193822 | 97 | 310 | 0.9 | 7.0 | 0.00 | 0.00 | 0.00 | 49 | 1015.4 |
| 20260901193052 | 98 | 269 | 1.7 | 7.0 | 0.00 | 0.00 | 0.00 | 48 | 1015.5 |
| 20260901192546 | 98 | 265 | 0.9 | 5.2 | 0.00 | 0.00 | 0.00 | 47 | 1015.7 |
| 20260901192039 | 97 | 156 | 0.9 | 5.2 | 0.00 | 0.00 | 0.00 | 48 | 1015.8 |
| 20260901191533 | 97 | 224 | 1.7 | 7.0 | 0.00 | 0.00 | 0.00 | 49 | 1015.9 |
| 20260901191027 | 96 | 27 | 1.7 | 6.1 | 0.00 | 0.00 | 0.00 | 52 | 1016.0 |
| 20260901190521 | 96 | 119 | 1.7 | 6.1 | 0.00 | 0.00 | 0.00 | 49 | 1015.9 |
| 20260901190016 | 96 | 46 | 0.9 | 7.0 | 0.00 | 0.00 | 0.00 | 51 | 1016.1 |
| 20260901185510 | 96 | 74 | 1.7 | 7.0 | 0.00 | 0.00 | 0.00 | 50 | 1016.1 |
| 20260901185003 | 96 | 100 | 1.7 | 5.2 | 0.00 | 0.00 | 0.00 | 50 | 1016.1 |
| 20260901184457 | 97 | 78 | 0.9 | 5.2 | 0.00 | 0.00 | 0.00 | 50 | 1016.1 |
| 20260901183951 | 96 | 55 | 1.7 | 7.0 | 0.00 | 0.00 | 0.00 | 50 | 1016.1 |
| 20260901183708 | 96 | 5 | 1.7 | 7.0 | 0.00 | 0.00 | 0.00 | 49 | 1016.1 |
| 20260901182939 | 96 | 38 | 1.7 | 3.5 | 0.00 | 0.00 | 0.00 | 50 | 1016.1 |
| 20260901182432 | 96 | 100 | 0.9 | 3.5 | 0.00 | 0.00 | 0.00 | 48 | 1016.0 |
| 20260901181927 | 97 | 273 | 0.9 | 3.5 | 0.00 | 0.00 | 0.00 | 49 | 1016.0 |
| 20260901181422 | 96 | 332 | 0.9 | 3.5 | 0.00 | 0.00 | 0.00 | 52 | 1016.0 |
| 20260901180915 | 96 | 322 | 0.9 | 3.5 | 0.00 | 0.00 | 0.00 | 51 | 1016.1 |
| 20260901180409 | 96 | 123 | 1.7 | 7.0 | 0.00 | 0.00 | 0.00 | 50 | 1016.0 |
| 20260901175904 | 96 | 340 | 1.7 | 7.0 | 0.00 | 0.00 | 0.00 | 53 | 1016.1 |
| 20260901175403 | 95 | 66 | 0.9 | 6.1 | 0.00 | 0.00 | 0.00 | 54 | 1016.2 |
| 20260901174904 | 95 | 221 | 0.9 | 6.1 | 0.00 | 0.00 | 0.00 | 54 | 1016.1 |
| 20260901174847 | 95 | 198 | 0.9 | 4.3 | 0.00 | 0.00 | 0.00 | 54 | 1016.0 |
| 20260901173904 | 94 | 355 | 1.7 | 4.3 | 0.00 | 0.00 | 0.00 | 54 | 1016.1 |
| 20260901173402 | 94 | 212 | 1.7 | 4.3 | 0.00 | 0.00 | 0.00 | 57 | 1016.1 |
| 20260901172904 | 94 | 217 | 1.7 | 3.5 | 0.00 | 0.00 | 0.00 | 59 | 1016.2 |
| 20260901172403 | 93 | 74 | 0.9 | 2.6 | 0.00 | 0.00 | 0.00 | 58 | 1016.1 |
| 20260901171904 | 94 | 110 | 0.9 | 3.5 | 0.00 | 0.00 | 0.00 | 56 | 1016.3 |
| 20260901171403 | 94 | 203 | 0.9 | 3.5 | 0.00 | 0.00 | 0.00 | 55 | 1016.4 |
| 20260901170904 | 93 | 215 | 0.9 | 3.5 | 0.00 | 0.00 | 0.00 | 57 | 1016.4 |
| 20260901170405 | 94 | 243 | 0.9 | 4.3 | 0.00 | 0.00 | 0.00 | 60 | 1016.4 |
| 20260901165906 | 93 | 243 | 0.9 | 4.3 | 0.00 | 0.00 | 0.00 | 57 | 1016.5 |
| 20260901165402 | 92 | 227 | 0.9 | 6.1 | 0.00 | 0.00 | 0.00 | 60 | 1016.4 |
| 20260901164901 | 91 | 215 | 0.9 | 6.1 | 0.00 | 0.00 | 0.00 | 60 | 1016.4 |
| 20260901164404 | 91 | 261 | 0.9 | 2.6 | 0.00 | 0.00 | 0.00 | 61 | 1016.5 |
| 20260901163903 | 91 | 244 | 1.7 | 3.5 | 0.00 | 0.00 | 0.00 | 60 | 1016.5 |
| 20260901163357 | 92 | 247 | 1.7 | 4.3 | 0.00 | 0.00 | 0.00 | 60 | 1016.5 |
| 20260901162852 | 91 | 275 | 1.7 | 6.1 | 0.00 | 0.00 | 0.00 | 61 | 1016.5 |
| 20260901162345 | 91 | 250 | 1.7 | 6.1 | 0.00 | 0.00 | 0.00 | 60 | 1016.6 |
| 20260901161839 | 91 | 26 | 0.9 | 5.2 | 0.00 | 0.00 | 0.00 | 61 | 1016.8 |
| 20260901161559 | 91 | 123 | 0.9 | 2.6 | 0.00 | 0.00 | 0.00 | 61 | 1016.9 |
| 20260901160828 | 91 | 246 | 1.7 | 5.2 | 0.00 | 0.00 | 0.00 | 61 | 1017.0 |
| 20260901160322 | 90 | 41 | 1.7 | 5.2 | 0.00 | 0.00 | 0.00 | 63 | 1017.0 |
| 20260901155816 | 90 | 225 | 0.9 | 4.3 | 0.00 | 0.00 | 0.00 | 61 | 1016.9 |
| 20260901155309 | 90 | 210 | 0.9 | 4.3 | 0.00 | 0.00 | 0.00 | 63 | 1017.0 |
| 20260901154804 | 89 | 24 | 1.7 | 4.3 | 0.00 | 0.00 | 0.00 | 62 | 1016.9 |
| 20260901154527 | 89 | 94 | 0.9 | 4.3 | 0.00 | 0.00 | 0.00 | 68 | 1016.9 |
| 20260901154014 | 89 | 318 | 0.9 | 3.5 | 0.00 | 0.00 | 0.00 | 67 | 1017.0 |
| 20260901153246 | 88 | 240 | 0.9 | 3.5 | 0.00 | 0.00 | 0.00 | 68 | 1017.0 |
| 20260901152739 | 87 | 254 | 0.9 | 3.5 | 0.00 | 0.00 | 0.00 | 69 | 1017.1 |
| 20260901152234 | 86 | 251 | 0.9 | 3.5 | 0.00 | 0.00 | 0.00 | 69 | 1017.2 |
| 20260901151727 | 87 | 281 | 0.9 | 5.2 | 0.00 | 0.00 | 0.00 | 69 | 1017.3 |
| 20260901151227 | 86 | 38 | 0.0 | 5.2 | 0.00 | 0.00 | 0.00 | 67 | 1017.3 |
| 20260901150946 | 85 | 203 | 0.0 | 1.7 | 0.00 | 0.00 | 0.00 | 72 | 1017.3 |
| 20260901150225 | 85 | 259 | 0.9 | 2.6 | 0.00 | 0.00 | 0.00 | 72 | 1017.4 |
| 20260901145726 | 85 | 237 | 0.9 | 2.6 | 0.00 | 0.00 | 0.00 | 71 | 1017.4 |
| 20260901145224 | 85 | 18 | 0.9 | 2.6 | 0.00 | 0.00 | 0.00 | 71 | 1017.4 |
| 20260901144943 | 84 | 225 | 0.0 | 2.6 | 0.00 | 0.00 | 0.00 | 73 | 1017.4 |
| 20260901144223 | 84 | 324 | 0.0 | 0.9 | 0.00 | 0.00 | 0.00 | 78 | 1017.5 |
| 20260901143724 | 83 | 215 | 0.0 | 0.0 | 0.00 | 0.00 | 0.00 | 79 | 1017.5 |
| 20260901143222 | 83 | 209 | 0.0 | 0.0 | 0.00 | 0.00 | 0.00 | 79 | 1017.5 |
| 20260901142724 | 83 | 201 | 0.0 | 2.6 | 0.00 | 0.00 | 0.00 | 79 | 1017.5 |
| 20260901142223 | 83 | 281 | 0.0 | 2.6 | 0.00 | 0.00 | 0.00 | 77 | 1017.5 |
| 20260901141723 | 83 | 229 | 0.0 | 2.6 | 0.00 | 0.00 | 0.00 | 79 | 1017.5 |
| 20260901141223 | 82 | 244 | 0.0 | 2.6 | 0.00 | 0.00 | 0.00 | 79 | 1017.5 |
| 20260901140723 | 81 | 5 | 0.0 | 1.7 | 0.00 | 0.00 | 0.00 | 81 | 1017.5 |
| 20260901140223 | 80 | 248 | 0.0 | 1.7 | 0.00 | 0.00 | 0.00 | 83 | 1017.4 |
| 20260901135724 | 80 | 279 | 0.0 | 1.7 | 0.00 | 0.00 | 0.00 | 84 | 1017.4 |
| 20260901135713 | 79 | 251 | 0.9 | 3.5 | 0.00 | 0.00 | 0.00 | 85 | 1017.4 |
| 20260901134723 | 78 | 283 | 0.0 | 3.5 | 0.00 | 0.00 | 0.00 | 88 | 1017.5 |
| 20260901134223 | 77 | 225 | 0.0 | 1.7 | 0.00 | 0.00 | 0.00 | 88 | 1017.5 |
| 20260901133722 | 77 | 220 | 0.9 | 3.5 | 0.00 | 0.00 | 0.00 | 88 | 1017.5 |
| 20260901133222 | 77 | 207 | 0.9 | 3.5 | 0.00 | 0.00 | 0.00 | 89 | 1017.6 |
| 20260901132722 | 77 | 273 | 0.0 | 2.6 | 0.00 | 0.00 | 0.00 | 91 | 1017.6 |
| 20260901132224 | 76 | 347 | 0.0 | 1.7 | 0.00 | 0.00 | 0.00 | 93 | 1017.6 |
| 20260901131723 | 75 | 246 | 0.0 | 1.7 | 0.00 | 0.00 | 0.00 | 93 | 1017.6 |
| 20260901131223 | 75 | 246 | 0.0 | 2.6 | 0.00 | 0.00 | 0.00 | 94 | 1017.6 |
| 20260901130722 | 75 | 266 | 0.9 | 2.6 | 0.00 | 0.00 | 0.00 | 94 | 1017.7 |
| 20260901130221 | 75 | 284 | 0.0 | 2.6 | 0.00 | 0.00 | 0.00 | 94 | 1017.8 |
| 20260901125723 | 75 | 240 | 0.0 | 0.0 | 0.00 | 0.00 | 0.00 | 94 | 1017.9 |
| 20260901125214 | 74 | 252 | 0.0 | 0.0 | 0.00 | 0.00 | 0.00 | 94 | 1017.9 |
| 20260901124709 | 74 | 252 | 0.0 | 0.0 | 0.00 | 0.00 | 0.00 | 94 | 1017.9 |
| 20260901124203 | 74 | 252 | 0.0 | 0.0 | 0.00 | 0.00 | 0.00 | 94 | 1017.8 |
| 20260901123656 | 74 | 252 | 0.0 | 0.0 | 0.00 | 0.00 | 0.00 | 94 | 1017.8 |
| 20260901123419 | 74 | 252 | 0.0 | 0.9 | 0.00 | 0.00 | 0.00 | 94 | 1017.8 |
| 20260901122916 | 74 | 252 | 0.0 | 1.7 | 0.00 | 0.00 | 0.00 | 94 | 1017.7 |
| 20260901122153 | 74 | 252 | 0.0 | 1.7 | 0.00 | 0.00 | 0.00 | 94 | 1017.7 |
| 20260901121652 | 74 | 241 | 0.0 | 0.9 | 0.00 | 0.00 | 0.00 | 94 | 1017.6 |
| 20260901121150 | 74 | 241 | 0.0 | 0.9 | 0.00 | 0.00 | 0.00 | 94 | 1017.6 |
| 20260901120650 | 73 | 241 | 0.0 | 0.9 | 0.00 | 0.00 | 0.00 | 94 | 1017.7 |
| 20260901120151 | 73 | 241 | 0.0 | 0.9 | 0.00 | 0.00 | 0.00 | 94 | 1017.6 |
| 20260901115649 | 73 | 241 | 0.0 | 0.9 | 0.00 | 0.00 | 0.00 | 94 | 1017.6 |
| 20260901115149 | 73 | 241 | 0.0 | 1.7 | 0.00 | 0.00 | 0.00 | 94 | 1017.5 |
| 20260901114650 | 73 | 241 | 0.0 | 1.7 | 0.00 | 0.00 | 0.00 | 94 | 1017.5 |
| 20260901114146 | 73 | 241 | 0.0 | 0.9 | 0.00 | 0.00 | 0.00 | 94 | 1017.5 |
| 20260901113647 | 73 | 241 | 0.0 | 0.9 | 0.00 | 0.00 | 0.00 | 94 | 1017.5 |
| 20260901113623 | 73 | 241 | 0.0 | 0.9 | 0.00 | 0.00 | 0.00 | 94 | 1017.4 |
| 20260901112642 | 73 | 241 | 0.0 | 0.9 | 0.00 | 0.00 | 0.00 | 94 | 1017.4 |
| 20260901112401 | 73 | 241 | 0.0 | 0.0 | 0.00 | 0.00 | 0.00 | 94 | 1017.3 |
| 20260901111637 | 73 | 241 | 0.0 | 0.0 | 0.00 | 0.00 | 0.00 | 93 | 1017.3 |
| 20260901111137 | 73 | 241 | 0.0 | 0.0 | 0.00 | 0.00 | 0.00 | 93 | 1017.2 |
| 20260901110902 | 73 | 241 | 0.0 | 0.0 | 0.00 | 0.00 | 0.00 | 93 | 1017.2 |
| 20260901110403 | 73 | 241 | 0.0 | 0.0 | 0.00 | 0.00 | 0.00 | 93 | 1017.2 |
| 20260901105635 | 73 | 241 | 0.0 | 0.0 | 0.00 | 0.00 | 0.00 | 93 | 1017.2 |
| 20260901105129 | 73 | 241 | 0.0 | 0.0 | 0.00 | 0.00 | 0.00 | 93 | 1017.2 |
| 20260901104624 | 73 | 241 | 0.0 | 0.0 | 0.00 | 0.00 | 0.00 | 93 | 1017.2 |
| 20260901104117 | 73 | 241 | 0.0 | 0.0 | 0.00 | 0.00 | 0.00 | 93 | 1017.1 |
| 20260901103611 | 73 | 241 | 0.0 | 0.0 | 0.00 | 0.00 | 0.00 | 93 | 1017.1 |
| 20260901103106 | 73 | 241 | 0.0 | 0.0 | 0.00 | 0.00 | 0.00 | 93 | 1017.0 |
| 20260901102807 | 73 | 241 | 0.0 | 0.0 | 0.00 | 0.00 | 0.00 | 93 | 1017.1 |
| 20260901102653 | 73 | 241 | 0.0 | 0.0 | 0.00 | 0.00 | 0.00 | 93 | 1017.0 |
| 20260901101550 | 73 | 241 | 0.0 | 0.0 | 0.00 | 0.00 | 0.00 | 93 | 1017.1 |
| 20260901101041 | 73 | 241 | 0.0 | 0.0 | 0.00 | 0.00 | 0.00 | 93 | 1017.1 |
| 20260901100536 | 73 | 241 | 0.0 | 0.0 | 0.00 | 0.00 | 0.00 | 93 | 1017.1 |
| 20260901100029 | 73 | 241 | 0.0 | 0.0 | 0.00 | 0.00 | 0.00 | 93 | 1017.0 |
| 20260901095745 | 73 | 241 | 0.0 | 0.0 | 0.00 | 0.00 | 0.00 | 93 | 1017.1 |
| 20260901095017 | 73 | 241 | 0.0 | 0.0 | 0.00 | 0.00 | 0.00 | 93 | 1017.0 |
| 20260901094737 | 73 | 241 | 0.0 | 0.0 | 0.00 | 0.00 | 0.00 | 93 | 1017.0 |
| 20260901094005 | 73 | 241 | 0.0 | 0.0 | 0.00 | 0.00 | 0.00 | 93 | 1017.0 |
| 20260901093459 | 73 | 241 | 0.0 | 0.0 | 0.00 | 0.00 | 0.00 | 93 | 1017.0 |
| 20260901092953 | 73 | 241 | 0.0 | 0.0 | 0.00 | 0.00 | 0.00 | 93 | 1017.1 |
| 20260901092448 | 73 | 241 | 0.0 | 0.0 | 0.00 | 0.00 | 0.00 | 93 | 1017.1 |
| 20260901091941 | 73 | 241 | 0.0 | 0.0 | 0.00 | 0.00 | 0.00 | 93 | 1017.1 |
| 20260901091435 | 74 | 241 | 0.0 | 0.0 | 0.00 | 0.00 | 0.00 | 93 | 1017.2 |
| 20260901091152 | 74 | 241 | 0.0 | 0.0 | 0.00 | 0.00 | 0.00 | 93 | 1017.3 |
| 20260901090647 | 74 | 241 | 0.0 | 0.0 | 0.00 | 0.00 | 0.00 | 93 | 1017.2 |
| 20260901085917 | 74 | 241 | 0.0 | 0.0 | 0.00 | 0.00 | 0.00 | 93 | 1017.2 |
| 20260901085411 | 74 | 241 | 0.0 | 0.0 | 0.00 | 0.00 | 0.00 | 93 | 1017.1 |
| 20260901085359 | 74 | 241 | 0.0 | 0.0 | 0.00 | 0.00 | 0.00 | 93 | 1017.1 |
| 20260901084400 | 74 | 241 | 0.0 | 0.9 | 0.00 | 0.00 | 0.00 | 93 | 1017.1 |
| 20260901083853 | 74 | 241 | 0.0 | 0.9 | 0.00 | 0.00 | 0.00 | 93 | 1017.1 |
| 20260901083347 | 74 | 241 | 0.0 | 0.9 | 0.00 | 0.00 | 0.00 | 93 | 1017.1 |
| 20260901083113 | 74 | 241 | 0.0 | 0.9 | 0.00 | 0.00 | 0.00 | 93 | 1017.1 |
| 20260901082335 | 74 | 241 | 0.0 | 0.0 | 0.00 | 0.00 | 0.00 | 93 | 1017.1 |
| 20260901081829 | 74 | 241 | 0.0 | 0.0 | 0.00 | 0.00 | 0.00 | 93 | 1017.1 |
| 20260901081323 | 74 | 241 | 0.0 | 0.0 | 0.00 | 0.00 | 0.00 | 93 | 1017.1 |
| 20260901080823 | 74 | 241 | 0.0 | 0.9 | 0.00 | 0.00 | 0.00 | 93 | 1017.1 |
| 20260901080320 | 74 | 241 | 0.0 | 0.9 | 0.00 | 0.00 | 0.00 | 93 | 1017.2 |
| 20260901080259 | 74 | 277 | 0.0 | 0.0 | 0.00 | 0.00 | 0.00 | 93 | 1017.2 |
| 20260901075316 | 74 | 277 | 0.0 | 0.0 | 0.00 | 0.00 | 0.00 | 93 | 1017.1 |
| 20260901074814 | 74 | 277 | 0.0 | 0.9 | 0.00 | 0.00 | 0.00 | 93 | 1017.2 |
| 20260901074536 | 74 | 277 | 0.0 | 0.9 | 0.00 | 0.00 | 0.00 | 93 | 1017.2 |
| 20260901073814 | 75 | 277 | 0.0 | 0.0 | 0.00 | 0.00 | 0.00 | 93 | 1017.2 |
| 20260901073313 | 75 | 277 | 0.0 | 0.0 | 0.00 | 0.00 | 0.00 | 93 | 1017.3 |
| 20260901072812 | 75 | 277 | 0.0 | 0.0 | 0.00 | 0.00 | 0.00 | 93 | 1017.3 |
| 20260901072749 | 75 | 277 | 0.0 | 0.0 | 0.00 | 0.00 | 0.00 | 93 | 1017.4 |
| 20260901072246 | 75 | 277 | 0.0 | 0.0 | 0.00 | 0.00 | 0.00 | 93 | 1017.5 |
| 20260901071305 | 75 | 277 | 0.0 | 0.0 | 0.00 | 0.00 | 0.00 | 93 | 1017.6 |
| 20260901071249 | 75 | 277 | 0.0 | 0.0 | 0.00 | 0.00 | 0.00 | 93 | 1017.6 |
| 20260901070301 | 75 | 277 | 0.0 | 0.0 | 0.00 | 0.00 | 0.00 | 93 | 1017.6 |
| 20260901065801 | 75 | 277 | 0.0 | 0.0 | 0.00 | 0.00 | 0.00 | 93 | 1017.5 |
| 20260901065533 | 75 | 277 | 0.0 | 0.0 | 0.00 | 0.00 | 0.00 | 93 | 1017.6 |
| 20260901064801 | 75 | 277 | 0.0 | 0.0 | 0.00 | 0.00 | 0.00 | 93 | 1017.7 |
| 20260901064301 | 75 | 277 | 0.0 | 0.9 | 0.00 | 0.00 | 0.00 | 93 | 1017.8 |
| 20260901063801 | 75 | 277 | 0.0 | 0.9 | 0.00 | 0.00 | 0.00 | 93 | 1017.7 |
| 20260901063529 | 75 | 231 | 0.0 | 0.9 | 0.00 | 0.00 | 0.00 | 93 | 1017.8 |
| 20260901062801 | 75 | 231 | 0.0 | 0.0 | 0.00 | 0.00 | 0.00 | 93 | 1017.7 |
| 20260901062301 | 75 | 231 | 0.0 | 0.0 | 0.00 | 0.00 | 0.00 | 93 | 1017.6 |
| 20260901061759 | 75 | 231 | 0.0 | 0.0 | 0.00 | 0.00 | 0.00 | 92 | 1017.6 |
| 20260901061518 | 75 | 231 | 0.0 | 0.0 | 0.00 | 0.00 | 0.00 | 92 | 1017.6 |
| 20260901060801 | 75 | 231 | 0.0 | 0.0 | 0.00 | 0.00 | 0.00 | 92 | 1017.7 |
| 20260901060259 | 75 | 231 | 0.0 | 0.0 | 0.00 | 0.00 | 0.00 | 92 | 1017.8 |
| 20260901055757 | 75 | 231 | 0.0 | 0.0 | 0.00 | 0.00 | 0.00 | 92 | 1017.8 |
| 20260901055256 | 75 | 231 | 0.0 | 0.0 | 0.00 | 0.00 | 0.00 | 92 | 1017.8 |
| 20260901054757 | 75 | 231 | 0.0 | 0.9 | 0.00 | 0.00 | 0.00 | 92 | 1017.9 |
| 20260901054254 | 75 | 231 | 0.0 | 0.9 | 0.00 | 0.00 | 0.00 | 92 | 1017.9 |
| 20260901053753 | 75 | 231 | 0.0 | 1.7 | 0.00 | 0.00 | 0.00 | 92 | 1018.1 |
| 20260901053254 | 75 | 231 | 0.0 | 1.7 | 0.00 | 0.00 | 0.00 | 92 | 1018.2 |
| 20260901052752 | 75 | 34 | 0.0 | 0.0 | 0.00 | 0.00 | 0.00 | 92 | 1018.1 |
| 20260901052252 | 76 | 34 | 0.0 | 0.0 | 0.00 | 0.00 | 0.00 | 92 | 1018.1 |
| 20260901051752 | 76 | 34 | 0.0 | 0.0 | 0.00 | 0.00 | 0.00 | 92 | 1018.2 |
| 20260901051250 | 76 | 34 | 0.0 | 0.0 | 0.00 | 0.00 | 0.00 | 92 | 1018.2 |
| 20260901051012 | 76 | 34 | 0.0 | 0.0 | 0.00 | 0.00 | 0.00 | 92 | 1018.2 |
| 20260901050250 | 76 | 34 | 0.0 | 0.0 | 0.00 | 0.00 | 0.00 | 91 | 1018.3 |
| 20260901045751 | 76 | 34 | 0.0 | 0.0 | 0.00 | 0.00 | 0.00 | 91 | 1018.4 |
| 20260901045250 | 76 | 34 | 0.0 | 0.0 | 0.00 | 0.00 | 0.00 | 91 | 1018.4 |
| 20260901044751 | 76 | 34 | 0.0 | 0.0 | 0.00 | 0.00 | 0.00 | 91 | 1018.4 |
| 20260901044728 | 76 | 34 | 0.0 | 0.0 | 0.00 | 0.00 | 0.00 | 91 | 1018.5 |
| 20260901044013 | 76 | 34 | 0.0 | 0.0 | 0.00 | 0.00 | 0.00 | 91 | 1018.6 |
| 20260901043512 | 76 | 34 | 0.0 | 0.0 | 0.00 | 0.00 | 0.00 | 91 | 1018.7 |
| 20260901042752 | 76 | 34 | 0.0 | 0.0 | 0.00 | 0.00 | 0.00 | 91 | 1018.7 |
| 20260901042250 | 76 | 34 | 0.0 | 0.0 | 0.00 | 0.00 | 0.00 | 91 | 1018.6 |
| 20260901041752 | 76 | 34 | 0.0 | 0.0 | 0.00 | 0.00 | 0.00 | 91 | 1018.5 |
| 20260901041251 | 76 | 34 | 0.0 | 0.0 | 0.00 | 0.00 | 0.00 | 91 | 1018.6 |
| 20260901040750 | 76 | 34 | 0.0 | 0.0 | 0.00 | 0.00 | 0.00 | 90 | 1018.6 |
| 20260901040250 | 76 | 34 | 0.0 | 0.0 | 0.00 | 0.00 | 0.00 | 90 | 1018.6 |
| 20260901035751 | 76 | 34 | 0.0 | 0.0 | 0.00 | 0.00 | 0.00 | 90 | 1018.6 |
| 20260901035249 | 76 | 34 | 0.0 | 0.0 | 0.00 | 0.00 | 0.00 | 90 | 1018.6 |
| 20260901034746 | 76 | 34 | 0.0 | 0.0 | 0.00 | 0.00 | 0.00 | 90 | 1018.6 |
| 20260901034502 | 76 | 34 | 0.0 | 0.0 | 0.00 | 0.00 | 0.00 | 90 | 1018.5 |
| 20260901033745 | 76 | 34 | 0.0 | 0.0 | 0.00 | 0.00 | 0.00 | 89 | 1018.6 |
| 20260901033238 | 76 | 34 | 0.0 | 0.0 | 0.00 | 0.00 | 0.00 | 89 | 1018.6 |
| 20260901032732 | 76 | 34 | 0.0 | 0.0 | 0.00 | 0.00 | 0.00 | 89 | 1018.5 |
| 20260901032227 | 76 | 34 | 0.0 | 0.0 | 0.00 | 0.00 | 0.00 | 89 | 1018.5 |
| 20260901031721 | 77 | 34 | 0.0 | 0.0 | 0.00 | 0.00 | 0.00 | 89 | 1018.5 |
| 20260901031215 | 77 | 34 | 0.0 | 0.9 | 0.00 | 0.00 | 0.00 | 89 | 1018.6 |
| 20260901030936 | 77 | 34 | 0.0 | 0.9 | 0.00 | 0.00 | 0.00 | 89 | 1018.5 |
| 20260901030207 | 77 | 34 | 0.0 | 0.0 | 0.00 | 0.00 | 0.00 | 88 | 1018.5 |
| 20260901025708 | 77 | 34 | 0.0 | 0.0 | 0.00 | 0.00 | 0.00 | 88 | 1018.4 |
| 20260901025645 | 77 | 34 | 0.0 | 0.0 | 0.00 | 0.00 | 0.00 | 88 | 1018.4 |
| 20260901024709 | 77 | 34 | 0.0 | 0.0 | 0.00 | 0.00 | 0.00 | 88 | 1018.4 |
| 20260901024208 | 78 | 34 | 0.0 | 0.0 | 0.00 | 0.00 | 0.00 | 88 | 1018.4 |
| 20260901023710 | 78 | 34 | 0.0 | 0.0 | 0.00 | 0.00 | 0.00 | 88 | 1018.5 |
| 20260901023208 | 78 | 34 | 0.0 | 0.0 | 0.00 | 0.00 | 0.00 | 88 | 1018.5 |
| 20260901022707 | 78 | 34 | 0.0 | 0.0 | 0.00 | 0.00 | 0.00 | 88 | 1018.4 |
| 20260901022209 | 78 | 34 | 0.0 | 0.0 | 0.00 | 0.00 | 0.00 | 88 | 1018.4 |
| 20260901021917 | 78 | 34 | 0.0 | 0.0 | 0.00 | 0.00 | 0.00 | 87 | 1018.3 |
| 20260901021800 | 78 | 34 | 0.0 | 0.0 | 0.00 | 0.00 | 0.00 | 87 | 1018.4 |
| 20260901020704 | 78 | 34 | 0.0 | 0.0 | 0.00 | 0.00 | 0.00 | 87 | 1018.4 |
| 20260901020206 | 78 | 34 | 0.0 | 0.0 | 0.00 | 0.00 | 0.00 | 87 | 1018.4 |
| 20260901015704 | 79 | 34 | 0.0 | 0.0 | 0.00 | 0.00 | 0.00 | 87 | 1018.3 |
| 20260901015204 | 79 | 34 | 0.0 | 0.0 | 0.00 | 0.00 | 0.00 | 86 | 1018.3 |
| 20260901014705 | 79 | 34 | 0.0 | 0.0 | 0.00 | 0.00 | 0.00 | 86 | 1018.3 |
| 20260901014205 | 79 | 34 | 0.0 | 0.0 | 0.00 | 0.00 | 0.00 | 86 | 1018.2 |
| 20260901013704 | 79 | 34 | 0.0 | 0.0 | 0.00 | 0.00 | 0.00 | 86 | 1018.3 |
| 20260901013200 | 79 | 34 | 0.0 | 0.0 | 0.00 | 0.00 | 0.00 | 86 | 1018.3 |
| 20260901012659 | 79 | 34 | 0.0 | 0.0 | 0.00 | 0.00 | 0.00 | 86 | 1018.2 |
| 20260901012420 | 80 | 34 | 0.0 | 0.0 | 0.00 | 0.00 | 0.00 | 86 | 1018.2 |
| 20260901011701 | 80 | 34 | 0.0 | 0.0 | 0.00 | 0.00 | 0.00 | 86 | 1018.2 |
| 20260901011159 | 80 | 34 | 0.0 | 0.0 | 0.00 | 0.00 | 0.00 | 86 | 1018.1 |
| 20260901010702 | 80 | 34 | 0.0 | 0.0 | 0.00 | 0.00 | 0.00 | 86 | 1018.1 |
| 20260901010202 | 80 | 34 | 0.0 | 0.0 | 0.00 | 0.00 | 0.00 | 85 | 1018.2 |
| 20260901005702 | 80 | 34 | 0.0 | 0.0 | 0.00 | 0.00 | 0.00 | 85 | 1018.1 |
| 20260901005202 | 80 | 34 | 0.0 | 0.0 | 0.00 | 0.00 | 0.00 | 85 | 1018.1 |
| 20260901004923 | 80 | 34 | 0.0 | 0.0 | 0.00 | 0.00 | 0.00 | 84 | 1018.0 |
| 20260901004148 | 80 | 34 | 0.0 | 0.0 | 0.00 | 0.00 | 0.00 | 84 | 1018.1 |
| 20260901003644 | 81 | 34 | 0.0 | 0.0 | 0.00 | 0.00 | 0.00 | 84 | 1018.0 |
| 20260901003137 | 81 | 34 | 0.0 | 0.0 | 0.00 | 0.00 | 0.00 | 84 | 1017.9 |
| 20260901002854 | 81 | 34 | 0.0 | 0.0 | 0.00 | 0.00 | 0.00 | 83 | 1017.9 |
| 20260901002126 | 81 | 34 | 0.0 | 0.0 | 0.00 | 0.00 | 0.00 | 83 | 1017.9 |
| 20260901001620 | 81 | 34 | 0.0 | 0.0 | 0.00 | 0.00 | 0.00 | 83 | 1017.9 |
| 20260901001114 | 82 | 34 | 0.0 | 0.0 | 0.00 | 0.00 | 0.00 | 83 | 1017.9 |
| 20260901000834 | 82 | 34 | 0.0 | 0.0 | 0.00 | 0.00 | 0.00 | 82 | 1017.8 |
| 20260831235556 | 82 | 34 | 0.0 | 0.0 | 0.00 | 0.00 | 0.00 | 82 | 1017.9 |
| 20260831235308 | 82 | 34 | 0.0 | 0.0 | 0.00 | 0.00 | 0.00 | 82 | 1017.9 |
| 20260831234807 | 82 | 34 | 0.0 | 0.0 | 0.00 | 0.00 | 0.00 | 81 | 1017.9 |
| 20260831234258 | 83 | 34 | 0.0 | 0.0 | 0.00 | 0.00 | 0.00 | 81 | 1017.8 |
| 20260831233532 | 83 | 34 | 0.0 | 0.0 | 0.00 | 0.00 | 0.00 | 81 | 1017.9 |
| 20260831233025 | 83 | 34 | 0.0 | 0.0 | 0.00 | 0.00 | 0.00 | 81 | 1017.9 |
| 20260831232520 | 83 | 34 | 0.0 | 0.0 | 0.00 | 0.00 | 0.00 | 81 | 1017.9 |
| 20260831232241 | 83 | 34 | 0.0 | 0.0 | 0.00 | 0.00 | 0.00 | 80 | 1017.9 |